7 * 24
多渠道服务支持
STARLINK-3713是SpaceX星链星座中的一颗卫星,NORAD编号为68318。星链计划是SpaceX打造的近地轨道卫星互联网项目,旨在为全球提供高速低延迟宽带服务。该卫星运行在近地轨道,属于星链大规模星座的组成部分,承担网络通信功能。星链卫星一般采用平板设计,配备光学星间激光链路,可提升网络传输效率。NORAD编号为其在轨道监测中的唯一识别标识,用于航天跟踪与避碰监测。作为近地轨道星座的一员,它服务于全球互联网覆盖,尤其是偏远地区接入需求。
美国
(US)
| 数据来源 | 国际轨道数据 |
| 星历时间: | 2026-09-13T05:33:56+0800 12小时前 查看轨道信息 |
| 半长轴: | 6843.671km |
| 偏心率: | 0.0000802 |
| 轨道倾角: | 97.289° |
| 近地点辐角 | 68.483° |
| 升交点赤经 | 21.330° |
| 平近点角 | 291.650° |
| 近地点: | 464.985km |
| 远地点: | 466.083km |
| 周期: | 93.906分钟 |
| 每日圈数: | 15.334483 |